"Pseudo-MPEC" for ZTF01ZK

Created 2018 Oct 14 2:18:24 UT using Find_Orb

Click here for an explanation of pseudo-MPECs

 
 Astrometry: 
     ZTF01ZK  C2018 10 06.32678500 46 08.62 -09 30 47.6          18.66iUNEOCPI41
     ZTF01ZK  C2018 10 06.32713200 46 09.12 -09 30 37.3          18.66iUNEOCPI41
     ZTF01ZK  C2018 10 06.34037600 46 32.08 -09 23 32.2          19.49gUNEOCPI41
     ZTF01ZK  C2018 10 06.34072300 46 32.70 -09 23 20.7          19.49gUNEOCPI41
     ZTF01ZK  C2018 10 06.34129100 46 33.71 -09 23 03.2          19.47gUNEOCPI41
     ZTF01ZK  C2018 10 06.34163800 46 34.33 -09 22 50.8          19.47gUNEOCPI41

Station data:
(I41) Palomar Mountain--ZTF  (N33.357340 W116.859780)  US/California. 1.2-m
   f/2.44 Oschin Schmidt + CCD.

Orbital elements:  ZTF01ZK
   Perigee 2018 Oct 4.092304 +/- 36.8 TT =  2:12:55 (JD 2458395.592304)
Epoch 2018 Oct  6.0 TT = JDT 2458397.5                        AutoNEOCP
M  10.67149 +/- 24                  (J2000 equator)
n   5.59391851 +/- 0.219            Peri.  309.52429 +/- 52
a678358.725 +/- 2.74e+7             Node    23.52432 +/- 60
e   0.4518219 +/- 0.149             Incl.   37.10450 +/- 2.0
P  64.35d                  H 31.3   G  0.15   U 11.7  SR
q 371861.396 +/- 1.12e+7    Q 984856.055 +/- 1.13e+8
From 6 observations 2018 Oct. 6 (21.4 min); mean residual 0".47
Residuals in arcseconds: 
181006 I41  .75+  .40+    181006 I41  .44-  .17-    181006 I41  .17+  .62-    
181006 I41  .73-  .39-    181006 I41  .18-  .16+    181006 I41  .42+  .61+    

Ephemerides (geocentric):
Date (UTC) HH   RA              Dec         delta   r     elong  mag " sig PA
---- -- -- --  -------------   -----------  ------ ------ -----  --- ---- ---
2018 10 14 02  04 58 30.912   +30 44 53.99  639343 0.9999 123.4 21.5  57d 174
2018 10 14 03  04 59 29.718   +30 50 07.50  640695 0.9999 123.2 21.5  57d 174
2018 10 14 04  05 00 28.372   +30 55 17.98  642045 0.9999 123.0 21.5  57d 174
2018 10 14 05  05 01 26.875   +31 00 25.47  643393 0.9999 122.8 21.5  57d 174
2018 10 14 06  05 02 25.228   +31 05 29.97  644738 0.9999 122.6 21.5  57d 174
2018 10 14 07  05 03 23.430   +31 10 31.53  646081 0.9998 122.4 21.5  57d 174
2018 10 14 08  05 04 21.484   +31 15 30.15  647422 0.9998 122.3 21.6  57d 174
2018 10 14 09  05 05 19.389   +31 20 25.87  648760 0.9998 122.1 21.6  57d 174
2018 10 14 10  05 06 17.146   +31 25 18.71  650097 0.9998 121.9 21.6  57d 174
2018 10 14 11  05 07 14.757   +31 30 08.68  651430 0.9998 121.7 21.6  57d 174
2018 10 14 12  05 08 12.220   +31 34 55.82  652762 0.9997 121.6 21.6  57d 174
2018 10 14 13  05 09 09.538   +31 39 40.14  654091 0.9997 121.4 21.6  57d 174
2018 10 14 14  05 10 06.710   +31 44 21.66  655418 0.9997 121.2 21.6  57d 174
2018 10 14 15  05 11 03.738   +31 49 00.41  656743 0.9997 121.0 21.6  57d 174
2018 10 14 16  05 12 00.622   +31 53 36.42  658065 0.9997 120.9 21.6  56d 174
2018 10 14 17  05 12 57.362   +31 58 09.69  659385 0.9997 120.7 21.6  56d 174
2018 10 14 18  05 13 53.960   +32 02 40.25  660702 0.9996 120.5 21.6  56d 174
2018 10 14 19  05 14 50.416   +32 07 08.13  662017 0.9996 120.4 21.7  56d 174
2018 10 14 20  05 15 46.730   +32 11 33.35  663329 0.9996 120.2 21.7  56d 174
2018 10 14 21  05 16 42.903   +32 15 55.91  664639 0.9996 120.0 21.7  56d 174
2018 10 14 22  05 17 38.935   +32 20 15.86  665947 0.9996 119.9 21.7  56d 174
2018 10 14 23  05 18 34.828   +32 24 33.20  667252 0.9995 119.7 21.7  56d 174
2018 10 15 00  05 19 30.582   +32 28 47.95  668554 0.9995 119.5 21.7  56d 174
2018 10 15 01  05 20 26.197   +32 33 00.15  669854 0.9995 119.4 21.7  56d 174
2018 10 15 02  05 21 21.675   +32 37 09.79  671152 0.9995 119.2 21.7  56d 174
2018 10 15 03  05 22 17.015   +32 41 16.92  672447 0.9995 119.0 21.7  56d 174
2018 10 15 04  05 23 12.218   +32 45 21.54  673739 0.9994 118.9 21.7  56d 174
2018 10 15 05  05 24 07.284   +32 49 23.68  675029 0.9994 118.7 21.7  56d 174
2018 10 15 06  05 25 02.215   +32 53 23.35  676317 0.9994 118.6 21.8  56d 174
2018 10 15 07  05 25 57.011   +32 57 20.57  677601 0.9994 118.4 21.8  56d 174
2018 10 15 08  05 26 51.673   +33 01 15.37  678884 0.9994 118.2 21.8  56d 174
2018 10 15 09  05 27 46.200   +33 05 07.76  680163 0.9994 118.1 21.8  56d 174
2018 10 15 10  05 28 40.594   +33 08 57.76  681440 0.9993 117.9 21.8  56d 174
2018 10 15 11  05 29 34.855   +33 12 45.38  682714 0.9993 117.8 21.8  56d 174
2018 10 15 12  05 30 28.984   +33 16 30.66  683986 0.9993 117.6 21.8  56d 174
2018 10 15 13  05 31 22.980   +33 20 13.60  685255 0.9993 117.5 21.8  56d 174
2018 10 15 14  05 32 16.846   +33 23 54.22  686521 0.9993 117.3 21.8  56d 174
2018 10 15 15  05 33 10.580   +33 27 32.54  687785 0.9992 117.2 21.8  56d 174
2018 10 15 16  05 34 04.185   +33 31 08.58  689046 0.9992 117.0 21.8  56d 174
2018 10 15 17  05 34 57.660   +33 34 42.35  690305 0.9992 116.9 21.9  55d 174
2018 10 15 18  05 35 51.005   +33 38 13.88  691560 0.9992 116.7 21.9  55d 174
2018 10 15 19  05 36 44.222   +33 41 43.18  692813 0.9992 116.6 21.9  55d 174
2018 10 15 20  05 37 37.311   +33 45 10.26  694063 0.9991 116.4 21.9  55d 174
2018 10 15 21  05 38 30.272   +33 48 35.15  695311 0.9991 116.3 21.9  55d 174
2018 10 15 22  05 39 23.107   +33 51 57.86  696556 0.9991 116.1 21.9  55d 174
2018 10 15 23  05 40 15.814   +33 55 18.41  697798 0.9991 116.0 21.9  55d 174
2018 10 16 00  05 41 08.396   +33 58 36.81  699037 0.9991 115.8 21.9  55d 174
2018 10 16 01  05 42 00.852   +34 01 53.08  700273 0.9990 115.7 21.9  55d 174